Location: Florida Caverns State Park
(30.8073°N, 85.2161°W)
Time: 11:54:09
(UTC-04:00)

OTV 5 (USA 277) - Visible Passes

Search period start: 15 October 2019 00:00
Search period end: 25 October 2019 00:00
Orbit: 310 x 324 km, 54.5° (Epoch: 08 October)

Date Brightness Start Highest point End Pass type
(mag) Time Alt. Az. Time Alt. Az. Time Alt. Az.
19 Oct ? 06:55:48 10° N 06:57:43 17° NE 06:59:37 10° E visible
20 Oct ? 07:09:40 10° NNW 07:12:21 56° NE 07:15:01 10° SE visible
21 Oct ? 05:52:41 11° NE 05:52:41 11° NE 05:53:06 10° NE visible
22 Oct ? 06:07:36 27° ENE 06:07:36 27° ENE 06:09:36 10° ESE visible
23 Oct ? 06:22:38 36° SSE 06:22:38 36° SSE 06:24:25 10° SSE visible
24 Oct ? 06:37:47 11° SSW 06:37:47 11° SSW 06:38:00 10° SSW visible
